Regional Weather Roundup
Issued by NWS

Home | Current Version | Previous Version | Graphics & Text | Print | Product List | Glossary On
Versions: 1 2 3 4 5 6 7 8 9 10 11 12 13 14 15 16 17 18 19 20 21 22 23 24 25 26 27 28 29 30 31 32 33 34 35 36 37 38 39 40 41 42 43 44 45 46 47 48 49 50
350
ASUS43 KMKX 260100
RWRWI

WISCONSIN REGIONAL WEATHER ROUNDUP
NATIONAL WEATHER SERVICE MILWAUKEE/SULLIVAN WI
800 PM CDT SUN JUN 25 2017

NOTE: "FAIR" INDICATES FEW OR NO CLOUDS BELOW 12,000 FEET WITH NO
SIGNIFICANT WEATHER AND/OR OBSTRUCTIONS TO VISIBILITY.

WIZ001-002-006>008-014>016-023>028-260200-
NORTHWEST WISCONSIN

CITY           SKY/WX    TMP DP  RH WIND       PRES   REMARKS
SUPERIOR ARPT  NOT AVBL
ASHLAND        MOCLDY    54  48  80 NW6       30.07F
HAYWARD        LGT RAIN  57  46  66 N6        30.09R
SIREN          MOCLDY    58  47  65 CALM      30.11S
CUMBERLAND     PTCLDY    54  45  71 NW7       30.11S
RICE LAKE      MOCLDY    57  45  64 NW9G16    30.12S
CHETEK         CLOUDY    58  46  65 NW8       30.11R
LADYSMITH      PTCLDY    56  51  81 NW8       30.10S
EAU CLAIRE     NOT AVBL
MENOMONIE      PTCLDY    60  48  64 N6        30.11R
NEW RICHMOND   MOCLDY    65  40  40 NW12      30.11S
OSCEOLA        PTCLDY    63  41  45 NW10      30.14R
$$

WIZ003>005-009-010-017-018-260200-
NORTH CENTRAL WISCONSIN

CITY           SKY/WX    TMP DP  RH WIND       PRES   REMARKS
MANITOWISH WTR CLOUDY    50  50 100 NW10G16   30.05S
ARBOR VITAE    CLOUDY    52  49  87 NW10      30.05R
WOODRUFF       CLOUDY    52  49  87 NW10      30.05R
RHINELANDER    MOCLDY    53  49  86 NW9       30.05S
EAGLE RIVER    CLOUDY    51  50  97 NW12G17   30.03S
LAND O LAKES   CLOUDY    51  50  95 NW6       30.04F
PHILLIPS       PTCLDY    55  47  74 NW5       30.06S
TOMAHAWK       NOT AVBL
MEDFORD        PTCLDY    57  46  66 NW7       30.07S
MERRILL        PTCLDY    56  49  75 NW9       30.07R
$$

WIZ029-030-035-036-043>047-260200-
CENTRAL WISCONSIN

CITY           SKY/WX    TMP DP  RH WIND       PRES   REMARKS
WAUSAU         PTCLDY    57  47  69 NW10G23   30.05R
MOSINEE        NOT AVBL
MARSHFIELD     MOCLDY    57  50  77 NW12G21   30.08R
STEVENS POINT  CLOUDY    56  53  92 W5        30.07R
WAUPACA        MOCLDY    59  55  87 W7        30.06S
WAUTOMA        MOCLDY    58  55  90 W7        30.08S
WISC RAPIDS    CLEAR     59  51  75 NW8       30.09R
CAMP DOUGLAS   NOT AVBL
$$

WIZ011>013-019>022-031-037>040-048>050-260200-
NORTHEAST WISCONSIN

CITY           SKY/WX    TMP DP  RH WIND       PRES   REMARKS
ANTIGO         PTCLDY    54  49  84 NW12G17   30.05R
SHAWANO        MOCLDY    60  54  82 W5        30.03S
OCONTO         CLOUDY    58  53  81 W12       30.01R
STURGEON BAY     N/A     59  55  87 SW6         N/A
GREEN BAY      CLOUDY    59  55  87 NW12      30.03S
MANITOWOC      NOT AVBL
APPLETON       MOCLDY    57  52  82 W10       30.04R
CLINTONVILLE   CLOUDY    59  50  72 W7        30.04R
OSHKOSH        CLOUDY    58  52  80 VRB5      30.05S
$$

WIZ032>034-041-042-053>061-260200-
SOUTHWEST WISCONSIN

CITY           SKY/WX    TMP DP  RH WIND       PRES   REMARKS
LA CROSSE      PTCLDY    70  46  42 W12       30.10S
SPARTA         CLEAR     63  49  61 NW8       30.10S
VIROQUA        CLEAR     63  48  59 W8        30.11S
BOSCOBEL       CLEAR     66  49  54 VRB3      30.12S
PRAIRIE DU CHI PTCLDY    65  44  46 W10       30.12S
PLATTEVILLE    CLEAR     64  50  60 W10G16    30.13S
$$

WIZ056-057-062-063-064-067-068-260200-
SOUTH CENTRAL WISCONSIN

CITY           SKY/WX    TMP DP  RH WIND       PRES   REMARKS
REEDSBURG      PTCLDY    57  56  97 CALM      30.10S
BARABOO/DELLS  PTCLDY    57  53  88 W5        30.10S
LONE ROCK      NOT AVBL
MINERAL POINT  PTCLDY    64  52  63 W9        30.12S
MADISON        MOCLDY    57  53  86 NW3       30.10R
MIDDLETON      CLOUDY    58  52  82 NW8       30.11R
WATERTOWN      NOT AVBL
MONROE         CLOUDY    63  48  59 W7        30.11S
JANESVILLE     MOCLDY    64  50  59 W9        30.10S
$$

WIZ051-052-058>065-066-070>072-260200-
SOUTHEAST WISCONSIN

CITY           SKY/WX    TMP DP  RH WIND       PRES   REMARKS
MILWAUKEE      PTCLDY    66  49  54 W10G18    30.07R
WAUKESHA       RAIN      57  50  77 W20G31    30.10R FOG
MILWAUKEE/TIMM MOCLDY    63  46  55 W16       30.07R
RACINE         CLEAR     64  48  56 W12G22    30.09R
KENOSHA        PTCLDY    63  49  60 W9        30.08R
FOND DU LAC    CLOUDY    59  51  75 W14       30.06S
SHEBOYGAN      LGT RAIN  56  54  93 NW8       30.04R
WEST BEND      MOCLDY    59  46  63 NW13G23   30.06R
JUNEAU         CLOUDY    57  53  87 W7        30.09S
$$

LSZ147-162-260200-
LAKE SUPERIOR

STATION/POSITION TIME  TEMP    WIND        PRES    WAVE
                       AIR SEA DIR/SP/G            HT/PER
                 (UTC) (F)     (DEG/KT/KT) (MB)    (FT/S)
W MID LAKE BUOY  2350   43 39  300/ 10/ 10 1017.5F   0
DEVILS ISLAND    0000   49     250/ 11/ 13 1018.0F
SAXON HARBOR     0040   56     280/  6/  9 1017.6S
$$

LMZ867-665-643>646-260200-
LAKE MICHIGAN

STATION/POSITION TIME  TEMP    WIND        PRES    WAVE
                       AIR SEA DIR/SP/G            HT/PER
                 (UTC) (F)     (DEG/KT/KT) (MB)    (FT/S)
CHAMBERS ISLAND  0040   58        CALM     1014.9F
S GREEN BAY BUOY 0030   60     280/ 12/ 14 1015.7R
N MID LAKE BUOY  2350   58 57  210/ 12/ 14 1016.0R   2/ 5
NORTHPORT PIER   0040   57     290/  5/  6 1015.2F
KEWAUNEE LAKESHO 0030   59     260/  6/  8 1015.8S
SHEBOYGAN LAKESH 0000   62     290/ 12/ 14 1016.6R
PORT WASHINGTON  0040   66     280/  9/ 15 1017.9R
ATWATER BUOY     2309   65 57  260/ 14/ 19 1017.2R
MILWAUKEE LAKESH 0030   65     280/ 14/ 17   N/A
S MID LAKE BUOY  2350   64 62  300/  8/ 10 1017.4R   1/ 4
KENOSHA   LAKESH 0000   66     280/ 16/ 23 1017.6
$$

TC  - TEMPERATURE IN CELSIUS
VSB - VISIBILITY IN STATUTE MILES
WCI - WIND CHILL INDEX
HX  - HEAT INDEX





USA.gov is the U.S. government's official web portal to all federal, state and local government web resources and services.